Weather History for Pierre, SD

Change the Weather History Date:

Sunday, March 31, 2013

  Actual Average Record
Temperature  
Mean Temperature 33 °F 40 °F  
Max Temperature 39 °F 52 °F 86 °F (1946)
Min Temperature 27 °F 29 °F 5 °F (1975)
Degree Days  
Heating Degree Days 32 25  
Month to date heating degree days 1101 947  
Since 1 July heating degree days 6525 6445  
Cooling Degree Days 0 0  
Month to date cooling degree days 0 0  
Year to date cooling degree days 0 0  
Moisture  
Dew Point 26 °F    
Average Humidity 63    
Maximum Humidity 85    
Minimum Humidity 40    
Precipitation  
Precipitation 0.00 in 0.06 in 1.28 in (1981)
Month to date precipitation 0.15 1.23  
Year to date precipitation 1.81 2.24  
Snow  
Snow 0.00 in 0.20 in 3.50 in (2008)
Month to date snowfall 3.0 6.0  
Since 1 July snowfall 34.7 27.8  
Snow Depth 0.00 in    
Sea Level Pressure  
Sea Level Pressure 30.11 in    
Wind  
Wind Speed 9 mph (North)    
Max Wind Speed 20 mph    
Max Gust Speed 23 mph    
Visibility 6 miles    
Events Snow    
T = Trace of Precipitation, MM = Missing Value Source: NWS Daily Summary

Daily Weather History Graph

Daily Weather History Graph

Search for Another Location

Airport:

Trip Planner

Search our weather history database for the weather conditions in past years. The results will help you decide how hot, cold, wet, or windy it might be!

Date:

Astronomy

Mar. 31, 2013 Rise Set
Actual Time 7:23 AM CDT 8:07 PM CDT
Civil Twilight 6:54 AM CDT 8:36 PM CDT
Nautical Twilight 6:19 AM CDT 9:11 PM CDT
Astronomical Twilight 5:43 AM CDT 9:48 PM CDT
Moon 12:24 AM CDT (3/31) 10:03 AM CDT (3/31)
Length of Visible Light 13h 42m
Length of Day
12h 44m
Waning Gibbous, 77% of the Moon is Illuminated
Mar 31
Waning Gibbous
Apr 2
Last Quarter
Apr 10
New
Apr 18
First Quarter
Apr 25
Full

Hourly Weather History & Observations

Time (CDT) Temp. Windchill Dew Point Humidity Pressure Visibility Wind Dir Wind Speed Gust Speed Precip Events Conditions
12:53 AM 35.1 °F 28.6 °F 28.0 °F 76% 30.07 in 10.0 mi West 8.1 mph - N/A   Clear
1:53 AM 37.0 °F 29.8 °F 30.0 °F 76% 30.06 in 10.0 mi WNW 10.4 mph - N/A   Clear
2:53 AM 37.0 °F 29.8 °F 30.0 °F 76% 30.04 in 10.0 mi WNW 10.4 mph - N/A   Clear
3:53 AM 37.0 °F 29.8 °F 28.9 °F 73% 30.03 in 10.0 mi West 10.4 mph - N/A   Clear
4:53 AM 35.1 °F 27.4 °F 27.0 °F 72% 30.01 in 10.0 mi WNW 10.4 mph - N/A   Clear
5:53 AM 35.1 °F 26.4 °F 27.0 °F 72% 30.02 in 10.0 mi NW 12.7 mph - N/A   Clear
6:53 AM 32.0 °F 24.2 °F 24.1 °F 73% 30.04 in 10.0 mi WNW 9.2 mph - N/A   Clear
7:53 AM 30.0 °F 22.4 °F 25.0 °F 82% 30.06 in 10.0 mi NW 8.1 mph - N/A   Clear
8:53 AM 33.1 °F 24.9 °F 23.0 °F 66% 30.08 in 10.0 mi North 10.4 mph - N/A   Clear
9:53 AM 35.1 °F 26.4 °F 19.9 °F 54% 30.07 in 10.0 mi NNE 12.7 mph - N/A   Mostly Cloudy
10:53 AM 37.0 °F 28.9 °F 17.1 °F 44% 30.07 in 10.0 mi NNE 12.7 mph - N/A   Overcast
11:53 AM 37.0 °F 29.8 °F 16.0 °F 42% 30.09 in 10.0 mi NNE 10.4 mph - N/A   Overcast
12:53 PM 37.9 °F 29.6 °F 16.0 °F 41% 30.08 in 10.0 mi NNE 13.8 mph 21.9 mph N/A   Mostly Cloudy
1:53 PM 36.0 °F 27.5 °F 24.1 °F 62% 30.10 in 10.0 mi NNE 12.7 mph - N/A   Overcast
2:13 PM 35.6 °F 28.0 °F 24.8 °F 65% 30.06 in 10.0 mi NE 10.4 mph - N/A   Overcast
2:43 PM 33.8 °F 25.8 °F 26.6 °F 75% 30.07 in 1.8 mi NNE 10.4 mph - 0.00 in Snow Light Snow
2:53 PM 33.1 °F 24.4 °F 28.0 °F 82% 30.12 in 1.8 mi NNE 11.5 mph - 0.00 in Snow Light Snow
3:10 PM 32.0 °F 23.6 °F 28.4 °F 87% 30.07 in 2.0 mi NNE 10.4 mph - 0.00 in Snow Light Snow
3:26 PM 32.0 °F 23.0 °F 28.4 °F 87% 30.08 in 1.5 mi NNE 11.5 mph - 0.00 in Snow Light Snow
3:30 PM 32.0 °F 23.6 °F 26.6 °F 80% 30.08 in 2.0 mi NNE 10.4 mph - 0.00 in Snow Light Snow
3:38 PM 32.0 °F 24.2 °F 26.6 °F 80% 30.08 in 5.0 mi NNE 9.2 mph - 0.00 in Snow Light Snow
3:53 PM 32.0 °F 23.0 °F 28.0 °F 85% 30.13 in 5.0 mi NNE 11.5 mph - 0.00 in Snow Light Snow
3:59 PM 32.0 °F 23.0 °F 28.4 °F 87% 30.09 in 2.5 mi North 11.5 mph - 0.00 in Snow Light Snow
4:15 PM 33.8 °F 26.4 °F 28.4 °F 81% 30.09 in 3.0 mi NNE 9.2 mph - 0.00 in Snow Light Snow
4:26 PM 33.8 °F 27.0 °F 28.4 °F 81% 30.09 in 2.0 mi North 8.1 mph - 0.00 in Snow Light Snow
4:30 PM 33.8 °F 25.8 °F 28.4 °F 81% 30.09 in 1.5 mi NNE 10.4 mph - 0.00 in Snow Light Snow
4:43 PM 33.8 °F 27.0 °F 28.4 °F 81% 30.10 in 1.5 mi North 8.1 mph - 0.00 in Snow Light Snow
4:53 PM 33.1 °F 26.9 °F 28.9 °F 85% 30.15 in 2.0 mi North 6.9 mph - 0.00 in Snow Light Snow
5:02 PM 33.8 °F 25.8 °F 28.4 °F 81% 30.10 in 1.8 mi North 10.4 mph - 0.00 in Snow Light Snow
5:05 PM 33.8 °F 25.8 °F 28.4 °F 81% 30.10 in 2.0 mi NNW 10.4 mph - 0.00 in Snow Light Snow
5:26 PM 32.0 °F 23.6 °F 28.4 °F 87% 30.11 in 3.0 mi North 10.4 mph - 0.00 in Snow Light Snow
5:36 PM 32.0 °F 22.5 °F 28.4 °F 87% 30.11 in 2.0 mi North 12.7 mph - 0.00 in Snow Light Snow
5:42 PM 32.0 °F 23.0 °F 28.4 °F 87% 30.11 in 1.5 mi North 11.5 mph - 0.00 in Snow Light Snow
5:53 PM 32.0 °F 24.8 °F 28.9 °F 88% 30.17 in 3.0 mi NNE 8.1 mph - 0.00 in Snow Light Snow
6:02 PM 32.0 °F 23.6 °F 28.4 °F 87% 30.12 in 3.0 mi NNE 10.4 mph - 0.00 in Snow Light Snow
6:11 PM 30.2 °F 21.3 °F 28.4 °F 93% 30.12 in 4.0 mi NNE 10.4 mph - 0.00 in Snow Light Snow
6:25 PM 32.0 °F 23.0 °F 28.4 °F 87% 30.13 in 5.0 mi NNE 11.5 mph - 0.00 in Snow Light Snow
6:53 PM 33.1 °F 25.5 °F 28.0 °F 82% 30.19 in 9.0 mi NE 9.2 mph - 0.00 in   Overcast
7:50 PM 30.2 °F 23.4 °F 26.6 °F 86% 30.16 in 10.0 mi ENE 6.9 mph - 0.00 in   Overcast
7:53 PM 30.9 °F 24.3 °F 26.1 °F 82% 30.21 in 10.0 mi ENE 6.9 mph - 0.00 in   Overcast
8:53 PM 30.0 °F 24.1 °F 24.1 °F 79% 30.24 in 10.0 mi NE 5.8 mph - N/A   Overcast
10:53 PM 30.0 °F 26.5 °F 23.0 °F 75% 30.27 in 10.0 mi North 3.5 mph - N/A   Overcast
11:53 PM 28.9 °F 25.2 °F 21.9 °F 75% 30.28 in 10.0 mi NNE 3.5 mph - N/A   Overcast